• In Hungary
  • List of Countries
  • For 7 days
  • Water Temperature
  • Satellite Maps
  • Weather Map
  • News
  • Weather Widgets
  • user-avatar
    Login

    Hourly Weather Muszynka

    Today, 22 September, Saturday

    Time Temperature Precipitation Wind Pressure Humidity
    00:00 +14°C° 0 mm 3 mps 704 mmHg 66%
    01:00 +14°C° 0 mm 3 mps 704 mmHg 65%
    02:00 +14°C° 0.1 mm 3 mps 705 mmHg 67%
    03:00 +15°C° 0.1 mm 2 mps 705 mmHg 69%
    04:00 +15°C° 0.1 mm 2 mps 705 mmHg 72%
    05:00 +14°C° 0.5 mm 2 mps 706 mmHg 77%
    06:00 +13°C° 0.5 mm 3 mps 706 mmHg 83%
    07:00 +12°C° 0.5 mm 3 mps 707 mmHg 89%
    08:00 +12°C° 0.7 mm 3 mps 707 mmHg 89%
    09:00 +12°C° 0.7 mm 2 mps 708 mmHg 89%
    10:00 +12°C° 0.7 mm 2 mps 708 mmHg 89%
    11:00 +12°C° 0.6 mm 2 mps 708 mmHg 87%
    12:00 +12°C° 0.6 mm 1 mps 708 mmHg 84%
    13:00 +12°C° 0.6 mm 1 mps 708 mmHg 82%
    14:00 +12°C° 0.1 mm 1 mps 708 mmHg 78%
    15:00 +13°C° 0.1 mm 1 mps 708 mmHg 74%
    16:00 +13°C° 0.1 mm 1 mps 708 mmHg 70%
    17:00 +12°C° 0 mm 1 mps 708 mmHg 75%
    18:00 +11°C° 0 mm 1 mps 708 mmHg 80%
    19:00 +10°C° 0 mm 1 mps 708 mmHg 85%
    20:00 +9°C° 0 mm 1 mps 708 mmHg 85%
    21:00 +9°C° 0 mm 1 mps 708 mmHg 85%
    22:00 +9°C° 0 mm 1 mps 708 mmHg 85%
    23:00 +9°C° 0 mm 1 mps 708 mmHg 83%

    Tomorrow, 23 September, Sunday

    Time Temperature Precipitation Wind Pressure Humidity
    00:00 +9°C° 0 mm 1 mps 708 mmHg 82%
    01:00 +9°C° 0 mm 1 mps 708 mmHg 80%
    02:00 +9°C° 0 mm 1 mps 708 mmHg 81%
    03:00 +9°C° 0 mm 1 mps 708 mmHg 81%
    04:00 +8°C° 0 mm 2 mps 708 mmHg 82%
    05:00 +8°C° 0 mm 2 mps 708 mmHg 81%
    06:00 +8°C° 0 mm 2 mps 708 mmHg 80%
    07:00 +9°C° 0 mm 2 mps 708 mmHg 79%
    08:00 +10°C° 0 mm 2 mps 708 mmHg 73%
    09:00 +11°C° 0 mm 3 mps 708 mmHg 66%
    10:00 +13°C° 0 mm 3 mps 708 mmHg 60%
    11:00 +13°C° 0 mm 3 mps 708 mmHg 59%
    12:00 +13°C° 0 mm 3 mps 708 mmHg 59%
    13:00 +14°C° 0 mm 3 mps 708 mmHg 58%
    14:00 +14°C° 0 mm 3 mps 707 mmHg 60%
    15:00 +15°C° 0 mm 2 mps 707 mmHg 61%
    16:00 +14°C° 0 mm 2 mps 707 mmHg 63%
    17:00 +13°C° 0 mm 2 mps 706 mmHg 68%
    18:00 +12°C° 0 mm 2 mps 705 mmHg 73%
    19:00 +10°C° 0 mm 3 mps 705 mmHg 78%
    20:00 +10°C° 0 mm 3 mps 704 mmHg 76%
    21:00 +11°C° 0 mm 4 mps 703 mmHg 74%
    22:00 +10°C° 0 mm 5 mps 702 mmHg 71%
    23:00 +10°C° 0.3 mm 5 mps 700 mmHg 73%

    Day after tomorrow, 24 September, Monday

    Time Temperature Precipitation Wind Pressure Humidity
    00:00 +10°C° 0.3 mm 6 mps 699 mmHg 75%
    01:00 +10°C° 0.3 mm 6 mps 697 mmHg 77%
    02:00 +11°C° 0.4 mm 7 mps 697 mmHg 79%
    03:00 +12°C° 0.4 mm 7 mps 696 mmHg 80%
    04:00 +14°C° 0.4 mm 7 mps 696 mmHg 81%
    05:00 +11°C° 0.4 mm 8 mps 697 mmHg 80%
    06:00 +8°C° 0.4 mm 9 mps 698 mmHg 79%
    07:00 +6°C° 0.4 mm 9 mps 699 mmHg 78%
    08:00 +6°C° 0.2 mm 8 mps 700 mmHg 78%
    09:00 +6°C° 0.2 mm 7 mps 702 mmHg 79%
    10:00 +7°C° 0.2 mm 6 mps 704 mmHg 79%
    11:00 +6°C° 0.2 mm 7 mps 705 mmHg 75%
    12:00 +6°C° 0.2 mm 7 mps 705 mmHg 71%
    13:00 +8°C° 0.2 mm 7 mps 706 mmHg 67%
    14:00 +8°C° 0.1 mm 7 mps 707 mmHg 63%
    15:00 +8°C° 0.1 mm 7 mps 707 mmHg 59%
    16:00 +8°C° 0.1 mm 6 mps 708 mmHg 55%
    17:00 +7°C° 0 mm 6 mps 708 mmHg 60%
    18:00 +5°C° 0 mm 5 mps 709 mmHg 64%
    19:00 +4°C° 0 mm 4 mps 709 mmHg 69%
    20:00 +4°C° 0 mm 4 mps 709 mmHg 70%
    21:00 +3°C° 0 mm 4 mps 710 mmHg 72%
    22:00 +3°C° 0 mm 3 mps 710 mmHg 73%
    23:00 +3°C° 0 mm 3 mps 711 mmHg 74%

    25 September, Tuesday

    Time Temperature Precipitation Wind Pressure Humidity
    00:00 +3°C° 0 mm 3 mps 711 mmHg 75%
    01:00 +3°C° 0 mm 3 mps 711 mmHg 76%
    02:00 +2°C° 0 mm 3 mps 712 mmHg 77%
    03:00 +2°C° 0 mm 3 mps 712 mmHg 79%
    04:00 +2°C° 0 mm 3 mps 712 mmHg 81%
    05:00 +2°C° 0 mm 3 mps 713 mmHg 79%
    06:00 +3°C° 0 mm 4 mps 713 mmHg 77%
    07:00 +3°C° 0 mm 4 mps 714 mmHg 76%
    08:00 +4°C° 0 mm 4 mps 714 mmHg 70%
    09:00 +6°C° 0 mm 5 mps 714 mmHg 65%
    10:00 +7°C° 0 mm 5 mps 715 mmHg 60%
    11:00 +7°C° 0.1 mm 5 mps 715 mmHg 56%
    12:00 +8°C° 0.1 mm 5 mps 715 mmHg 53%
    13:00 +8°C° 0.1 mm 5 mps 715 mmHg 50%
    14:00 +8°C° 0 mm 4 mps 715 mmHg 50%
    15:00 +8°C° 0 mm 4 mps 714 mmHg 50%
    16:00 +8°C° 0 mm 4 mps 714 mmHg 50%
    17:00 +7°C° 0 mm 3 mps 714 mmHg 57%
    18:00 +5°C° 0 mm 3 mps 714 mmHg 63%
    19:00 +4°C° 0 mm 2 mps 714 mmHg 70%
    20:00 +4°C° 0 mm 2 mps 713 mmHg 68%
    21:00 +5°C° 0 mm 2 mps 713 mmHg 67%
    22:00 +4°C° 0 mm 3 mps 713 mmHg 65%
    23:00 +4°C° 0 mm 3 mps 713 mmHg 66%

    26 September, Wednesday

    Time Temperature Precipitation Wind Pressure Humidity
    00:00 +4°C° 0 mm 3 mps 712 mmHg 67%
    01:00 +4°C° 0 mm 3 mps 712 mmHg 67%
    02:00 +3°C° 0.7 mm 3 mps 711 mmHg 73%
    03:00 +3°C° 0.7 mm 3 mps 711 mmHg 79%
    04:00 +3°C° 0.7 mm 3 mps 711 mmHg 86%
    05:00 +3°C° 0.2 mm 3 mps 711 mmHg 86%
    06:00 +3°C° 0.2 mm 3 mps 712 mmHg 87%
    07:00 +4°C° 0.2 mm 3 mps 712 mmHg 87%
    08:00 +5°C° 0.1 mm 4 mps 712 mmHg 79%
    09:00 +6°C° 0.1 mm 5 mps 713 mmHg 70%
    10:00 +8°C° 0.1 mm 5 mps 713 mmHg 61%
    11:00 +9°C° 0 mm 5 mps 714 mmHg 56%
    12:00 +9°C° 0 mm 5 mps 714 mmHg 51%
    13:00 +10°C° 0 mm 5 mps 714 mmHg 46%
    14:00 +10°C° 0 mm 5 mps 714 mmHg 49%
    15:00 +11°C° 0 mm 4 mps 714 mmHg 51%
    16:00 +10°C° 0 mm 4 mps 714 mmHg 53%
    17:00 +9°C° 0 mm 3 mps 715 mmHg 60%
    18:00 +7°C° 0 mm 2 mps 715 mmHg 67%
    19:00 +7°C° 0 mm 1 mps 715 mmHg 74%
    20:00 +6°C° 0 mm 1 mps 715 mmHg 76%
    21:00 +5°C° 0 mm 1 mps 715 mmHg 79%
    22:00 +5°C° 0 mm 1 mps 715 mmHg 82%
    23:00 +5°C° 0 mm 1 mps 715 mmHg 83%

    27 September, Thursday

    Time Temperature Precipitation Wind Pressure Humidity
    00:00 +4°C° 0 mm 1 mps 715 mmHg 84%
    01:00 +4°C° 0 mm 1 mps 715 mmHg 85%
    02:00 +4°C° 0 mm 1 mps 715 mmHg 85%
    03:00 +4°C° 0 mm 1 mps 715 mmHg 85%
    04:00 +4°C° 0 mm 1 mps 714 mmHg 85%
    05:00 +4°C° 0 mm 2 mps 714 mmHg 80%
    06:00 +5°C° 0 mm 2 mps 714 mmHg 76%
    07:00 +5°C° 0 mm 2 mps 714 mmHg 71%
    08:00 +8°C° 0 mm 2 mps 714 mmHg 62%
    09:00 +10°C° 0 mm 2 mps 714 mmHg 54%
    10:00 +12°C° 0 mm 3 mps 714 mmHg 45%
    11:00 +13°C° 0 mm 3 mps 714 mmHg 43%
    12:00 +14°C° 0 mm 3 mps 713 mmHg 42%
    13:00 +16°C° 0 mm 3 mps 713 mmHg 40%
    14:00 +16°C° 0 mm 3 mps 712 mmHg 43%
    15:00 +16°C° 0 mm 3 mps 712 mmHg 46%
    16:00 +14°C° 0 mm 3 mps 711 mmHg 50%
    17:00 +12°C° 0 mm 3 mps 710 mmHg 55%
    18:00 +10°C° 0 mm 3 mps 710 mmHg 61%
    19:00 +8°C° 0 mm 3 mps 709 mmHg 66%
    20:00 +7°C° 0 mm 3 mps 709 mmHg 68%
    21:00 +7°C° 0 mm 3 mps 709 mmHg 69%
    22:00 +6°C° 0 mm 2 mps 708 mmHg 70%
    23:00 +6°C° 0 mm 2 mps 708 mmHg 71%
    Show more